Location: Berkeley
(37.8716°N, 122.2727°W)
Time: 03:56:05
(UTC-08:00)

ISS - Visible Passes

Search period start: 15 December 2017 00:00
Search period end: 25 December 2017 00:00
Orbit: 402 x 407 km, 51.6° (Epoch: 15 December)

Date Brightness Start Highest point End Pass type
(mag) Time Alt. Az. Time Alt. Az. Time Alt. Az.
15 Dec -3.5 18:14:19 10° NW 18:17:34 64° SW 18:19:57 17° SE visible
16 Dec -3.8 17:22:03 10° NW 17:25:19 61° NE 17:28:33 10° ESE visible
16 Dec -0.5 19:00:07 10° WSW 19:01:23 12° SW 19:02:40 10° SSW visible
17 Dec -1.3 18:06:38 10° WNW 18:09:19 23° SW 18:12:00 10° S visible
